Location: Unspecified
(0.0000°N, 0.0000°E)
Time: 08:32:27
(UTC+02:00)

ARIANE 5 DEB (SYLDA) - Visible Passes

Search period start: 02 August 2014 00:00
Search period end: 12 August 2014 00:00
Orbit: 153 x 8530 km, 1.4° (Epoch: 31 July)

Date Brightness Start Highest point End Pass type
(mag) Time Alt. Az. Time Alt. Az. Time Alt. Az.
02 Aug 7.3 03:03:35 42° E 03:03:35 42° E 03:28:27 10° E visible
02 Aug 7.1 06:05:42 33° W 06:24:26 87° N 07:32:14 10° E visible
02 Aug 0.9 20:38:38 10° W 20:40:30 47° S 20:41:22 16° ESE visible
03 Aug 7.2 03:15:10 46° E 03:15:10 46° E 03:42:04 10° E visible
03 Aug 7.2 06:15:44 29° W 06:35:51 87° N 07:42:19 10° E visible
03 Aug 0.9 20:40:59 10° W 20:42:53 48° S 20:43:40 19° ESE visible
04 Aug 7.2 03:14:01 44° E 03:14:01 44° E 03:38:32 10° E visible
04 Aug 7.1 06:12:56 31° W 06:31:22 87° N 07:36:11 10° E visible
05 Aug 7.4 02:59:16 35° E 02:59:16 35° E 03:17:15 10° E visible
05 Aug 6.9 05:56:26 38° W 06:10:23 87° N 07:12:26 10° E visible
06 Aug 7.7 02:29:55 22° E 02:29:55 22° E 02:38:13 10° E visible
06 Aug 6.5 05:25:10 56° W 05:32:41 87° N 06:28:53 10° E visible
07 Aug 6.3 04:37:57 86° N 04:38:04 86° N 05:23:09 10° E visible
07 Aug 7.6 07:32:24 10° W 08:04:32 87° N 09:02:30 10° E visible
07 Aug 3.8 21:19:36 10° W 21:20:05 15° WSW 21:20:05 15° WSW visible
08 Aug 6.9 03:33:18 45° E 03:33:18 45° E 03:55:15 10° E visible
08 Aug 6.9 06:23:55 28° W 06:40:24 87° N 07:37:20 10° E visible
09 Aug 6.2 04:57:32 78° WNW 04:59:21 86° N 05:42:19 10° E visible
09 Aug 1.6 21:06:03 10° W 21:07:52 45° SW 21:07:52 45° SW visible
10 Aug 7.3 03:09:24 29° E 03:09:24 29° E 03:20:42 10° E visible
10 Aug 6.4 05:54:13 43° W 06:03:27 86° N 06:51:33 10° E visible
11 Aug 6.9 03:37:58 39° E 03:37:58 39° E 03:53:50 10° E visible
11 Aug 6.6 06:18:58 31° W 06:31:08 86° N 07:18:01 10° E visible
